User: anonymous   Login
Location: Vale
(35.4830°N, 81.3830°W)
Time: 19:04:35
(UTC-04:00)
Language:

Cosmos 2237 Rocket - Orbit

View from above orbital plane
View from above orbital plane
View from above satellite
View from above satellite

Ground track
Ground track

The orbit data is extracted from the following two-line orbital elements,

1 22566U 93016B   14295.45119468 -.00000226  00000-0 -92350-4 0  1873
2 22566 071.0074 300.2318 0009763 181.4528 178.6568 14.14860870114245
Epoch (UTC): 22 October 2014 10:49:43
Eccentricity: 0.0009763
inclination: 71.0074°
perigee height: 836 km
apogee height: 850 km
right ascension of ascending node: 300.2318°
argument of perigee: 181.4528°
revolutions per day: 14.14860870
mean anomaly at epoch: 178.6568°
orbit number at epoch: 11424

The dashed part of the orbit path shows where the satellite is in the earth's shadow,  

DLR